Regional Weather Roundup
Issued by NWS

Home | Current Version | Previous Version | Graphics & Text | Print | Product List | Glossary On
Versions: 1 2 3 4 5 6 7 8 9 10 11 12 13 14 15 16 17 18 19 20 21 22 23 24 25 26 27 28 29 30 31 32 33 34 35 36 37 38 39 40 41 42 43 44 45 46 47 48 49 50
000
ASUS43 KBIS 231331
RWRND
NORTH DAKOTA REGIONAL WEATHER ROUNDUP
NATIONAL WEATHER SERVICE EASTERN NORTH DAKOTA/GRAND FORKS ND
800 AM CDT TUE MAY 23 2017

  NOTE: "FAIR" INDICATES FEW OR NO CLOUDS BELOW 12,000 FEET WITH NO
  SIGNIFICANT WEATHER AND/OR OBSTRUCTIONS TO VISIBILITY.

NDZ001>003-009>011-017-231400-
...NORTHWEST NORTH DAKOTA...

CITY           SKY/WX    TMP DP  RH WIND       PRES   REMARKS
WILLISTON      FAIR      46  36  68 NE3       30.18R
MINOT          FAIR      50  38  63 NW12      30.14S
MINOT AFB      FAIR      48  38  68 N8        30.14R
$$

NDZ018>021-031>035-040>046-231400-
...SOUTHWEST NORTH DAKOTA...

CITY           SKY/WX    TMP DP  RH WIND       PRES   REMARKS
BISMARCK       FAIR      53  37  54 N13G23    30.08R
DICKINSON      FAIR      43  36  76 W6        30.14R
GARRISON         N/A     47  38  71 N15       30.13R
HETTINGER      FAIR      46  37  71 NW9       30.14S
$$

NDZ004>008-012>016-024-026-027-054-231400-
...NORTHEAST NORTH DAKOTA...

CITY           SKY/WX    TMP DP  RH WIND       PRES   REMARKS
GRAND FORKS    CLOUDY    50  45  83 N17       29.99R
GRAND FORKS AF CLOUDY    48  45  87 N17       30.00R
DEVILS LAKE    PTSUNNY   48  39  71 N18G25    30.07R
$$

NDZ022-023-025-028>030-036>039-047>053-231400-
...SOUTHEAST NORTH DAKOTA...

CITY           SKY/WX    TMP DP  RH WIND       PRES   REMARKS
JAMESTOWN      LGT RAIN  46  44  93 N17       30.00R FOG
FARGO          CLOUDY    48  46  93 N18G24    29.93R
WAHPETON       CLOUDY    46  43  87 N14       29.91S
$$




USA.gov is the U.S. government's official web portal to all federal, state and local government web resources and services.